User: anonymous
Location: Arrakis Observatory
(44.1122°N, 95.7153°W)
Time: 06:18:35
(UTC-05:00)
Language:

SL-8 R/B - Orbit

View from above orbital plane
View from above orbital plane
View from above satellite
View from above satellite

Ground track
Ground track

The orbit data is extracted from the following two-line orbital elements,

1 32751U 08014B   14205.46264417  .00027974  00000-0  25969-3 0  8966
2 32751 098.1385 163.3708 0011487 040.5082 076.6836 15.67349196353561
Epoch (UTC): 24 July 2014 11:06:12
Eccentricity: 0.0011487
inclination: 98.1385°
perigee height: 359 km
apogee height: 374 km
right ascension of ascending node: 163.3708°
argument of perigee: 40.5082°
revolutions per day: 15.67349196
mean anomaly at epoch: 76.6836°
orbit number at epoch: 35356

The dashed part of the orbit path shows where the satellite is in the earth's shadow,  

DLR